星链-30380 (STARLINK-30380 )

导读

STARLINK-30380是美国SpaceX公司星链(Starlink)星座的一颗低轨通信卫星,于2023年9月4日发射升空,作为星链第二代组网卫星,它运行在近地轨道,为全球偏远地区、海洋等场景提供低延迟高速宽带互联网服务。卫星配备氪离子推进系统与相控阵通信天线,支持自主轨道调整与避碰,设计寿命约5-7年,退役后会主动离轨,在大气层中完全烧毁,减少空间碎片影响。它的入轨进一步完善了星链全球覆盖能力,推动卫星互联网服务普及。

基本信息
目录编号:
57780
目录名称:
STARLINK-30380
国际标识:
2023-134K
轨道中心:
EARTH
卫星名称:
星链-30380
卫星全名:
星链-30380 (STARLINK-30380 )
卫星状态:
在轨 (已飞行1103 天)
发射日期:
2023-09-04 UTC
国别 :
美国 (US)
星等 :
--
该卫星已列入 空间交会检测服务 Space Conjunction Data Service (SCDS) ,当前飞行风险评估等级: 高风险
轨道信息
数据来源 国际轨道数据
星历时间: 2026-09-11T07:15:01+0800
15小时前
查看轨道信息
半长轴: 6861.205km
偏心率: 0.0001151
轨道倾角: 43.002°
近地点辐角 267.412°
升交点赤经 228.049°
平近点角 92.660°
近地点: 482.278km
远地点: 483.858km
周期: 94.267分钟
每日圈数: 15.275739
详细信息
固有亮度:
5
最大亮度:
0.3
卫星平台:
Starlink v2.0 mini
覆盖范围:
全球
运营商:
太空探索技术公司
运营商所在国:
美国
制造商(研发单位):
太空探索技术公司
制造商所在国:
美国
使用方式:
暂无
卫星简介
星链(Starlink)计划是由太空探索技术公司(SpaceX)提出的一个巨型低轨卫星互联网星座项目,计划在2019年至2024年间在太空搭建由约1.2万颗卫星组成的“星链”网络,其中1584颗将部署在地球上空550千米处的近地轨道,并从2020年开始工作。该卫星仍在工作。
2D轨道图
3D轨道图
轨道高度分析图
轨道倾角分析图
轨道综合分析图
查看轨道综合分析图
交会数据列表
事件ID 空间交会对象 最接近时刻(TCA) 交会距离 交会风险概率(CRP) 交会风险指数(CRI) 操作
CDM_260911-184405-778006-630722
OBJECT Q (66307)
2026-09-11T
18:44:48+0000
0.154 km
中距离
8.779167E-4 高风险 0.94
CDM_260912-084305-778006-356221
2026-09-12T
08:43:37+0000
0.523 km
远距离
1.115833E-4 高风险 0.76
CDM_260912-031405-778006-356221
2026-09-12T
03:14:06+0000
0.929 km
远距离
1.938588E-5 中风险 0.61
CDM_260913-133505-778006-711121
2026-09-13T
13:35:14+0000
0.882 km
远距离
1.177536E-5 中风险 0.56
CDM_260913-111405-778006-711121
2026-09-13T
11:14:00+0000
0.979 km
远距离
8.245229E-6 低风险 0.53
CDM_260912-101205-778006-393521
2026-09-12T
10:12:30+0000
2.804 km
极远距离
9.439936E-7 极低风险 0.34
CDM_260913-124805-778006-711121
2026-09-13T
12:48:10+0000
2.843 km
极远距离
5.27878E-7 极低风险 0.29
CDM_260913-150905-778006-711121
2026-09-13T
15:09:23+0000
2.941 km
极远距离
5.084626E-7 极低风险 0.29
与全量物体交会距离演化趋势
与全量物体交会风险概率演化趋势